[[{"header":{"parameterUnit":"m.s-1","parameterCategory":1,"la1":30.2991,"la2":30.254,"lo1":-89.0895,"lo2":-89.0444,"dy":0.0017,"dx":0.0017,"nx":28,"ny":28,"refTime":"2024-07-16T03:00:00:Z","depth":0,"parameterNumber":2,"parameterNumberName":"U-component_of_WINDS"},"data":[0,0,0,0,0,0,0,0,0,0,0,0,0,0,0,0,0,0,0,0,0,0,0,0,0,0,0,0,0,0,0,0,0,0,0,0,0,0,0,0,0,0,0,0,0,0,0,0,0,0,0,0,0,0,0,0,0,0,2.2054,2.2054,0,2.2063,2.2063,2.2063,2.2011,2.2009,2.2008,2.2007,2.2019,2.202,2.2022,0,0,0,0,0,0,0,0,0,0,0,0,0,2.1994,2.1995,2.2054,2.2054,2.2054,2.2063,2.2063,2.2063,2.2011,2.2009,2.2008,2.2006,2.2018,2.202,2.2022,0,0,0,0,0,0,0,0,0,0,0,0,0,2.2013,2.1996,2.2054,2.2029,2.2027,2.2063,2.2063,2.2063,2.2012,2.2009,2.2007,2.2005,2.2017,2.202,2.2022,2.2083,0,0,2.203,2.2031,0,0,0,0,0,0,0,0,2.2012,2.2016,2.2033,2.2031,2.2029,2.2033,2.2046,2.207,2.2012,2.2018,2.2007,2.2004,2.2026,2.2027,2.2034,2.2084,2.2084,2.203,2.2032,2.2033,2.2034,0,0,0,0,0,0,0,2.2011,2.2015,2.2058,2.2033,2.2031,2.2018,2.2019,2.205,2.2034,2.2017,2.2013,2.2015,2.2024,2.2032,2.2034,2.2084,2.203,2.2033,2.2034,2.2035,2.2182,2.2184,0,0,0,0,0,0,2.2013,2.2014,2.2057,2.2058,2.2015,2.2021,2.2022,2.2034,2.2034,2.2031,2.2017,2.2012,2.2028,2.2031,2.2034,2.2103,2.2033,2.2035,2.2037,2.2179,2.2182,2.2185,0,0,0,0,0,0,2.2012,2.2017,2.2057,2.2035,2.2039,2.2025,2.2039,2.2036,2.2043,2.2033,2.203,2.2027,2.2027,2.203,2.207,2.2102,2.2037,2.2039,2.2177,2.218,2.2183,2.2242,0,0,0,0,0,0,2.201,2.2017,2.2039,2.2036,2.204,2.2093,2.2041,2.2037,2.2047,2.2042,2.2043,2.2041,2.2025,2.2067,2.2073,2.2105,2.2041,2.2174,2.2178,2.2182,2.2237,2.2247,2.2256,0,0,0,0,0,2.2008,2.2057,2.2041,2.2046,2.2068,2.2095,2.2097,2.2078,2.205,2.2073,2.2066,2.2041,2.2099,2.2071,2.2078,2.2111,2.2171,2.2177,2.2182,2.2233,2.2245,2.2255,0,0,0,0,0,0,2.2066,2.2056,2.2038,2.2087,2.2092,2.2086,2.2114,2.2092,2.2106,2.21,2.2076,2.2077,2.212,2.212,2.209,2.2168,2.213,2.2137,2.2167,2.2178,2.2187,2.2186,2.2043,0,0,0,0,0,2.2084,2.2106,2.2096,2.2141,2.2144,2.2129,2.214,2.2124,2.2128,2.2131,2.2127,2.2133,2.2152,2.2166,2.2183,2.2238,2.2236,2.2263,2.2273,2.228,2.2286,2.2312,2.2324,2.2202,2.2202,2.2202,0,0,2.2123,2.212,2.2135,2.2152,2.2154,2.2177,2.2131,2.2158,2.2174,2.2135,2.2171,2.2169,2.2174,2.2221,2.2242,2.2222,2.2319,2.2287,2.2293,2.2295,2.2319,2.233,2.2341,2.2206,2.2205,2.2204,0,0,2.2203,2.2205,2.224,2.2242,2.2245,2.2235,2.2243,2.224,2.2237,2.2273,2.2243,2.2263,2.2298,2.2302,2.2308,2.239,2.2366,2.2396,2.2444,2.247,2.2479,2.2488,2.2514,2.2525,2.2402,2.2402,2.2403,0,2.2251,2.2283,2.2261,2.2289,2.2297,2.2261,2.2296,2.2301,2.231,2.2316,2.2294,2.2335,2.2336,2.2382,2.2401,2.2409,2.2417,2.2395,2.248,2.2488,2.2495,2.252,2.2531,2.2406,2.2405,2.2405,2.2405,0,2.234,2.2363,2.2392,2.2399,2.2411,2.2443,2.2425,2.2439,2.2423,2.2415,2.2451,2.2451,2.2467,2.2477,2.2462,2.2521,2.2508,2.2484,2.2444,2.2511,2.2534,2.2543,2.2411,2.241,2.2409,2.2408,0,0,2.2457,2.2451,2.2461,2.2463,2.2464,2.2481,2.2512,2.2526,2.2537,2.2545,2.2569,2.2598,2.2574,2.2582,2.2567,2.2591,2.2652,2.2563,2.2562,2.2577,2.2714,2.273,2.2742,2.2637,2.2639,2.264,2.2712,0,2.2534,2.2583,2.2563,2.2614,2.2634,2.2601,2.2627,2.263,2.2623,2.2639,2.2632,2.2652,2.2621,2.2625,2.2647,2.264,2.2679,2.2635,2.2658,2.2659,2.2655,2.2754,2.2772,2.284,2.2722,2.2723,2.2724,0,2.263,2.2639,2.2691,2.2686,2.2694,2.2717,2.2727,2.2744,2.2747,2.274,2.2748,2.2728,2.2757,2.2719,2.2758,2.2728,2.2737,2.2735,2.2737,2.2737,2.2694,2.2754,2.2862,2.2871,2.2739,2.2738,2.2737,0,2.2706,2.2732,2.2766,2.277,2.2765,2.2782,2.2781,2.2782,2.2791,2.28,2.2806,2.282,2.2826,2.2838,2.2821,2.2796,2.2862,2.2823,2.2856,2.2856,2.287,2.2869,2.2978,2.288,2.288,2.2879,2.2879,0,2.2792,2.2825,2.28,2.2821,2.2856,2.2834,2.287,2.2866,2.2866,2.2886,2.2859,2.2878,2.2856,2.2873,2.2861,2.2894,2.2898,2.2893,2.2889,2.2894,2.2894,2.2897,2.2891,2.2882,2.2881,2.2881,2.288,0,2.2883,2.2868,2.2902,2.2894,2.2893,2.292,2.2913,2.2932,2.2923,2.2948,2.2953,2.2939,2.2957,2.2943,2.2961,2.2953,2.2995,2.2986,2.2994,2.299,2.3023,2.3019,2.3136,2.3149,2.3045,2.3046,2.3047,0,2.2937,2.2961,2.2956,2.2966,2.2966,2.2984,2.2992,2.2972,2.2982,2.2986,2.3004,2.302,2.3031,2.3062,2.3054,2.3067,2.3057,2.3097,2.3059,2.3062,2.3054,2.3052,2.3053,2.3104,2.3105,2.3106,2.3107,0,2.3035,2.3026,2.3038,2.3048,2.3059,2.3066,2.3071,2.3082,2.306,2.3073,2.3091,2.3099,2.3117,2.3133,2.3143,2.3143,2.3121,2.3119,2.3127,2.3131,2.3133,2.313,2.3012,2.3116,2.3115,2.3115,2.3114,2.3114,2.3107,2.3126,2.3124,2.3139,2.3141,2.3146,2.3162,2.3155,2.3169,2.318,2.3168,2.3189,2.319,2.3202,2.3204,2.322,2.3203,2.3216,2.3218,2.3221,2.3224,2.3133,2.3222,2.3222,2.3222,2.3222,2.3221,0,2.3201,2.3198,2.3212,2.3219,2.323,2.3209,2.3213,2.3224,2.3242,2.3245,2.3256,2.3275,2.329,2.3283,2.3295,2.3309,2.33,2.3313,2.3311,2.3311,2.324,2.323,2.3321,2.3321,2.3321,2.3321,2.3321,2.3321,2.3251,2.3281,2.3271,2.3302,2.3299,2.3318,2.3322,2.3326,2.3328,2.335,2.3362,2.3357,2.3355,2.3367,2.3379,2.3377,2.3382,2.3399,2.3392,2.3326,2.3316,2.3306,2.3297,2.3401,2.3401,2.3462,2.3462,2.3463]},{"header":{"parameterUnit":"m.s-1","parameterCategory":1,"la1":30.2991,"la2":30.254,"lo1":-89.0895,"lo2":-89.0444,"dy":0.0017,"dx":0.0017,"nx":28,"ny":28,"refTime":"2024-07-16T03:00:00:Z","depth":0,"parameterNumber":3,"parameterNumberName":"V-component_of_WINDS"},"data":[0,0,0,0,0,0,0,0,0,0,0,0,0,0,0,0,0,0,0,0,0,0,0,0,0,0,0,0,0,0,0,0,0,0,0,0,0,0,0,0,0,0,0,0,0,0,0,0,0,0,0,0,0,0,0,0,0,0,3.6453,3.6453,0,3.6415,3.6415,3.6414,3.637,3.6369,3.6368,3.6368,3.6328,3.6327,3.6327,0,0,0,0,0,0,0,0,0,0,0,0,0,3.6487,3.6487,3.6454,3.6453,3.6453,3.6415,3.6415,3.6414,3.637,3.6369,3.6368,3.6367,3.6328,3.6327,3.6327,0,0,0,0,0,0,0,0,0,0,0,0,0,3.6463,3.6487,3.6454,3.6426,3.6423,3.6415,3.6415,3.6414,3.637,3.6369,3.6368,3.6367,3.6328,3.6327,3.6327,3.6343,0,0,3.6325,3.6324,0,0,0,0,0,0,0,0,3.6465,3.6462,3.643,3.6428,3.6425,3.6396,3.6412,3.639,3.637,3.639,3.6368,3.6366,3.6351,3.6349,3.6344,3.6341,3.6339,3.6325,3.6324,3.6324,3.6324,0,0,0,0,0,0,0,3.6466,3.6463,3.6438,3.643,3.6426,3.6415,3.6411,3.6408,3.6377,3.6388,3.6385,3.6381,3.6349,3.6344,3.6342,3.6339,3.6325,3.6324,3.6324,3.6323,3.6346,3.6347,0,0,0,0,0,0,3.6472,3.6465,3.644,3.6437,3.6442,3.6415,3.641,3.6406,3.6377,3.6371,3.6382,3.6379,3.6346,3.6343,3.6341,3.6356,3.6324,3.6323,3.6323,3.6345,3.6346,3.6347,0,0,0,0,0,0,3.6473,3.647,3.6441,3.645,3.6446,3.6416,3.6412,3.6406,3.6401,3.6372,3.6366,3.6382,3.6345,3.6342,3.6342,3.6354,3.6323,3.6323,3.6344,3.6345,3.6347,3.6388,0,0,0,0,0,0,3.6474,3.6471,3.6477,3.6451,3.6445,3.6444,3.6413,3.6406,3.64,3.6396,3.6371,3.6366,3.6344,3.6344,3.6342,3.6353,3.6322,3.6342,3.6344,3.6346,3.6385,3.6391,3.6395,0,0,0,0,0,3.6476,3.649,3.6478,3.6475,3.6452,3.6445,3.6441,3.6416,3.6401,3.6407,3.6388,3.6367,3.6354,3.6344,3.6342,3.6353,3.6341,3.6344,3.6346,3.6383,3.639,3.6395,0,0,0,0,0,0,3.6519,3.6486,3.6472,3.6479,3.6465,3.6437,3.6443,3.6424,3.6414,3.6411,3.638,3.6375,3.6378,3.6366,3.6356,3.6366,3.6344,3.6346,3.6374,3.6379,3.6384,3.6386,3.6321,0,0,0,0,0,3.6529,3.6526,3.6498,3.6506,3.65,3.6473,3.6469,3.6451,3.6435,3.6429,3.641,3.6395,3.6388,3.6383,3.6375,3.6384,3.6377,3.639,3.6395,3.64,3.6401,3.6403,3.6408,3.6354,3.6354,3.6354,0,0,3.655,3.6532,3.6532,3.6514,3.6501,3.6498,3.6468,3.6466,3.6463,3.6428,3.6427,3.6413,3.6395,3.6399,3.64,3.6389,3.6414,3.6402,3.6406,3.6405,3.6406,3.6411,3.6415,3.6356,3.6356,3.6355,0,0,3.6586,3.6573,3.6578,3.6566,3.6547,3.6529,3.653,3.6505,3.6494,3.6493,3.6467,3.6463,3.6451,3.6438,3.643,3.6462,3.6441,3.646,3.6485,3.6487,3.6491,3.6495,3.6504,3.6508,3.6462,3.6462,3.6462,0,3.6614,3.6608,3.6583,3.6582,3.6575,3.6544,3.6548,3.6537,3.6516,3.6512,3.6499,3.6483,3.6468,3.6469,3.6476,3.6472,3.6471,3.6461,3.6493,3.6496,3.6499,3.6508,3.6511,3.6464,3.6464,3.6464,3.6463,0,3.6643,3.664,3.6646,3.6626,3.662,3.6622,3.6596,3.6593,3.6576,3.6559,3.6557,3.6539,3.6525,3.6525,3.6508,3.6522,3.6515,3.6499,3.6476,3.6507,3.6514,3.6518,3.6467,3.6466,3.6466,3.6465,0,0,3.6703,3.667,3.6673,3.6663,3.664,3.6636,3.6637,3.6624,3.6621,3.6608,3.6606,3.6597,3.6581,3.6572,3.6554,3.6557,3.658,3.6539,3.6538,3.6545,3.6593,3.6604,3.6608,3.6567,3.6568,3.6568,3.6594,0,3.6733,3.6732,3.6709,3.6714,3.6709,3.668,3.668,3.6666,3.665,3.6644,3.6627,3.662,3.6601,3.6595,3.6596,3.6577,3.6589,3.6575,3.6564,3.6564,3.6567,3.6612,3.6624,3.6649,3.6597,3.6597,3.6597,0,3.6768,3.6757,3.6761,3.6737,3.6735,3.6735,3.6721,3.6716,3.6699,3.6687,3.6677,3.6657,3.6655,3.6635,3.6631,3.6622,3.6616,3.6606,3.6607,3.6603,3.6581,3.6608,3.6657,3.6659,3.6602,3.6602,3.6601,0,3.6808,3.6795,3.6795,3.6788,3.6761,3.6762,3.6751,3.6733,3.6726,3.6714,3.6709,3.6698,3.669,3.6681,3.6657,3.6646,3.6655,3.6634,3.6644,3.6644,3.6645,3.6645,3.6692,3.6646,3.6646,3.6645,3.6645,0,3.6843,3.6846,3.6813,3.6813,3.6816,3.679,3.6793,3.6779,3.6763,3.6759,3.6734,3.6731,3.6701,3.6694,3.6676,3.6674,3.6672,3.6661,3.6656,3.6662,3.6663,3.6656,3.6653,3.6646,3.6646,3.6646,3.6646,0,3.6887,3.6866,3.6864,3.6839,3.6833,3.6836,3.6814,3.6812,3.6796,3.6791,3.6789,3.6762,3.6753,3.6729,3.6714,3.6701,3.6704,3.6695,3.6709,3.6706,3.6716,3.6715,3.6758,3.6762,3.6716,3.6716,3.6717,0,3.691,3.6911,3.6887,3.6883,3.6873,3.6866,3.686,3.6835,3.6829,3.6809,3.681,3.6799,3.6788,3.6775,3.6754,3.6741,3.6731,3.6747,3.6729,3.6735,3.6729,3.6728,3.6727,3.6751,3.6751,3.6752,3.6752,0,3.6951,3.694,3.6932,3.692,3.6913,3.6902,3.6889,3.6888,3.6859,3.6854,3.6844,3.6836,3.682,3.6809,3.6794,3.6781,3.6761,3.6759,3.676,3.6765,3.6772,3.6767,3.6718,3.6757,3.6757,3.6756,3.6756,3.6756,3.6983,3.6983,3.6965,3.6957,3.6945,3.6934,3.6932,3.6915,3.6907,3.6892,3.6878,3.687,3.6852,3.6829,3.6818,3.6811,3.6801,3.6803,3.6803,3.6804,3.6806,3.6776,3.6808,3.6808,3.6808,3.6807,3.6807,0,3.7021,3.7008,3.7001,3.6985,3.6978,3.6962,3.6947,3.6942,3.6936,3.6921,3.6912,3.69,3.6889,3.6868,3.6854,3.6852,3.6843,3.685,3.6848,3.6845,3.6816,3.6816,3.6857,3.6857,3.6857,3.6857,3.6857,3.6857,3.7039,3.7038,3.7025,3.7018,3.7005,3.6997,3.699,3.698,3.6968,3.6957,3.6948,3.6934,3.6916,3.6902,3.6891,3.6884,3.688,3.6889,3.688,3.6852,3.6848,3.6843,3.6842,3.6889,3.6889,3.6909,3.6909,3.6909]}]]